RH
58 67 95 94 93 93 93 91 94 94 93 90 88 88 89 90 90 92 92 92 89 84 81 81 85 86 83 82 86 88 88 89 90 87 85 82 79 81 84 86 84 65 86
60 70 95 94 93 93 93 92 93 95 94 92 89 89 90 90 90 92 92 91 88 85 80 81 84 84 84 85 89 91 90 91 91 88 84 80 79 79 84 87 81 74 86
69 72 80 94 93 92 92 92 92 94 94 93 92 91 90 90 90 91 91 90 88 85 82 80 79 80 85 90 90 91 91 91 90 88 84 57 65 81 84 89 88 86 85
66 70 73 95 93 92 92 92 91 92 94 94 93 92 91 90 91 91 92 91 88 86 84 78 78 83 88 92 93 93 92 92 91 88 59 61 66 81 83 86 85 84 84
66 65 73 94 94 93 92 92 92 91 93 94 93 91 91 91 92 92 92 91 88 86 83 79 81 88 93 94 94 94 95 92 88 70 66 74 71 76 81 83 84 85 80
65 66 88 96 95 94 93 93 92 92 93 94 93 92 91 92 92 92 92 91 89 87 86 84 89 92 95 96 95 95 94 92 84 60 69 77 72 78 82 83 85 86 87
70 72 84 93 96 94 94 93 93 93 94 94 94 93 92 92 93 93 93 92 90 87 82 89 94 94 95 96 95 95 95 92 62 63 76 75 70 81 82 81 84 86 88
75 77 83 91 94 96 95 96 94 93 94 95 95 95 94 94 94 94 94 93 91 89 84 89 94 94 95 95 95 95 95 90 68 64 68 74 81 81 78 79 84 88 88
83 81 86 86 88 98 97 97 96 94 94 95 96 96 96 97 96 95 94 92 92 91 92 95 94 94 94 94 95 95 95 92 63 61 62 64 85 80 78 80 84 84 84
88 83 82 86 86 86 86 98 96 95 95 96 96 97 98 98 96 95 95 93 94 93 94 94 94 94 93 94 95 95 95 94 67 65 68 63 85 80 79 81 81 83 83
90 87 81 82 86 86 83 85 95 96 96 96 94 97 95 79 81 84 88 94 95 95 94 94 94 94 93 94 94 95 95 61 70 66 67 89 84 79 78 79 84 82 80
84 90 84 84 86 86 78 85 84 83 78 77 77 79 80 82 82 77 87 96 96 96 94 94 93 94 89 68 72 90 67 71 70 71 61 92 84 79 80 81 82 81 80
66 74 87 87 87 87 83 82 80 80 85 86 85 84 83 84 82 86 79 79 76 93 77 83 84 76 73 70 72 77 74 73 68 67 75 92 86 80 81 80 79 78 78
68 65 77 83 88 90 84 82 78 76 80 90 88 91 88 87 88 88 77 83 78 82 81 83 84 82 78 74 72 73 76 74 74 79 89 94 91 83 81 80 78 76 77
61 67 74 79 82 84 90 84 80 80 80 88 87 88 86 86 86 85 83 77 75 76 78 84 83 82 79 77 75 75 73 75 76 73 75 98 98 89 82 80 77 77 76
29 50 72 75 78 78 85 90 84 84 82 87 82 82 86 84 85 84 84 82 79 78 81 79 80 81 78 78 78 75 72 72 72 74 77 79 99 98 91 83 78 76 74
23 24 55 79 78 80 82 87 84 82 83 87 79 82 84 82 84 85 87 84 82 87 85 83 82 81 79 80 78 76 73 74 71 71 74 84 78 98 99 96 83 80 75
20 24 29 51 77 83 84 84 82 87 82 81 76 76 81 81 76 87 91 92 90 91 87 84 80 82 80 79 79 81 76 74 72 76 74 86 84 95 98 100 92 84 80
16 24 29 37 64 80 81 81 84 85 84 79 74 74 77 78 84 86 89 93 95 93 93 88 85 80 81 82 79 76 78 84 85 78 89 92 88 94 97 96 97 91 84
20 26 30 32 43 71 77 84 86 88 82 76 76 74 76 80 82 85 90 94 94 96 95 95 92 86 81 80 81 80 84 91 78 89 91 92 93 96 94 97 93 78 88
36 34 28 31 42 53 69 83 86 89 84 81 80 79 79 81 85 88 88 94 94 94 95 95 94 94 94 91 92 94 92 89 90 92 92 93 95 96 96 97 93 65 64
72 72 70 60 37 36 52 65 67 74 81 81 86 86 83 85 84 89 88 92 93 94 96 95 95 97 94 94 92 89 96 86 88 87 89 91 91 96 95 96 96 85 59
68 70 69 68 69 63 38 54 69 76 83 94 94 92 90 86 83 90 88 90 92 91 94 94 94 94 96 97 88 84 94 92 90 88 94 94 94 97 94 94 95 88 68
67 67 67 68 68 65 64 46 69 68 72 75 79 82 90 90 86 86 88 88 92 91 93 93 92 92 92 96 96 90 75 70 82 93 91 96 94 97 96 96 93 88 75
68 71 72 70 69 67 71 60 68 71 66 64 75 83 88 91 87 84 89 90 92 92 93 94 95 94 91 90 91 94 87 90 85 86 84 96 98 96 94 95 94 93 76
69 75 76 76 72 71 75 69 72 74 69 69 76 87 88 92 93 93 89 91 91 92 93 93 93 94 95 91 89 85 87 88 94 92 89 90 87 95 96 97 96 94 78
Wind_Speed
8 17 18 18 15 13 10 10 10 12 15 17 19 19 19 19 19 18 17 15 14 15 15 13 11 13 11 10 10 9 10 11 12 14 14 16 17 17 16 14 12 16 15
12 17 18 18 17 15 12 11 11 12 14 17 19 19 19 19 19 18 17 15 15 15 15 13 11 12 14 12 11 12 12 13 12 13 14 16 16 16 16 12 11 15 16
16 17 19 18 17 16 14 12 12 13 13 16 18 19 19 19 19 18 17 16 15 15 14 13 12 12 14 12 12 13 13 13 11 13 11 12 13 16 16 14 15 15 16
18 17 18 18 18 17 15 13 12 14 14 15 17 19 19 18 17 18 17 16 15 15 14 14 14 14 14 13 13 13 13 11 10 11 9 10 12 15 15 17 16 17 17
15 15 15 18 17 16 14 13 12 13 14 14 16 18 19 18 18 17 16 15 16 15 14 14 14 14 14 13 13 13 13 12 11 9 10 9 9 13 16 17 16 16 15
14 14 15 15 15 16 15 14 12 12 12 13 14 16 17 17 17 17 15 16 16 15 13 12 13 12 13 13 13 14 14 12 11 11 8 10 9 15 16 14 15 16 15
10 13 16 19 14 15 14 13 12 12 12 12 12 14 15 16 17 16 15 15 15 15 13 14 12 13 14 14 14 13 13 12 11 11 9 9 9 15 16 16 15 18 16
9 9 13 15 15 12 12 13 13 12 12 11 12 12 14 14 15 15 14 14 13 13 14 13 12 14 14 14 13 12 12 11 10 11 10 8 12 15 17 14 15 17 16
5 8 11 12 12 10 11 11 11 12 12 12 11 11 12 12 12 13 13 12 13 15 14 13 13 14 14 14 13 12 11 10 11 8 10 8 13 16 16 16 17 17 16
4 5 7 10 10 11 11 8 10 11 11 11 10 10 11 11 11 11 10 11 12 14 15 15 13 14 14 14 13 12 11 11 10 10 8 8 14 18 17 15 16 16 15
4 3 6 7 6 9 10 10 9 9 10 11 10 9 9 10 13 13 11 10 11 12 14 15 14 14 12 12 13 12 12 7 8 6 6 8 14 17 17 13 13 15 14
4 3 3 4 4 7 7 10 11 10 9 10 11 12 9 10 11 11 9 9 9 11 12 14 14 13 13 9 8 10 7 7 7 7 6 9 13 16 17 15 15 15 15
10 9 9 5 5 6 7 7 6 7 6 7 11 10 10 8 8 8 7 7 8 9 8 11 10 10 13 9 9 9 8 8 6 6 6 8 13 17 18 17 17 16 16
11 13 14 13 8 7 4 6 8 8 8 6 8 10 7 6 8 8 7 9 8 8 10 10 8 10 12 11 11 10 9 7 5 4 3 7 9 16 21 19 18 18 17
11 11 16 18 17 11 9 7 9 9 9 8 9 11 9 8 9 9 9 9 9 9 9 9 10 9 11 11 10 11 10 9 8 5 5 5 2 12 19 21 19 18 18
11 11 11 15 17 17 14 10 10 8 9 8 11 12 14 10 9 9 9 10 9 9 8 9 10 9 9 10 11 11 10 8 8 8 5 4 4 3 12 20 20 19 19
13 13 11 15 16 17 18 15 12 10 9 9 12 14 16 14 13 10 8 10 10 8 10 8 9 8 8 8 11 10 9 9 8 8 6 3 6 6 8 17 18 19 19
14 15 12 11 14 17 16 13 12 12 11 11 11 11 16 16 15 10 8 8 8 9 9 9 9 9 9 9 8 8 8 8 9 9 7 4 4 2 6 15 17 18 19
16 15 16 11 15 17 16 13 14 15 12 11 11 11 16 15 12 11 9 8 9 8 8 9 9 10 9 9 8 8 8 7 7 8 8 6 7 4 5 11 14 15 17
16 14 14 12 12 15 13 12 9 9 11 11 11 11 15 12 14 13 9 10 10 8 8 8 9 9 9 9 8 8 8 5 8 7 8 6 7 8 10 7 8 11 14
9 13 13 13 12 10 12 12 11 12 12 12 11 15 15 14 14 14 10 10 11 11 11 11 7 10 6 7 5 4 5 8 9 7 6 6 8 8 9 7 6 10 10
13 12 12 12 13 12 12 12 12 12 13 12 11 12 15 16 17 15 14 13 14 10 12 12 11 5 6 9 5 4 4 7 9 9 8 9 12 8 9 10 9 10 12
15 15 15 15 14 12 15 12 11 10 10 9 10 12 15 18 18 16 15 13 14 12 11 13 13 13 9 7 10 5 4 6 3 6 11 9 10 8 9 11 12 12 14
18 16 18 18 18 14 13 15 19 15 16 14 13 14 13 17 18 18 17 16 13 11 12 13 12 12 10 8 6 8 6 1 5 3 5 6 9 10 12 10 12 13 13
18 18 16 19 19 17 15 17 15 19 14 13 13 16 15 14 18 20 18 16 14 12 13 14 13 14 11 9 8 5 11 7 5 4 5 3 3 6 9 11 11 10 12
17 17 16 18 18 17 15 19 22 22 18 15 15 12 11 10 12 15 15 15 16 14 15 13 15 16 12 10 9 9 8 6 7 6 6 4 7 4 6 6 9 9 10
Wind_Direction
188 153 146 146 148 150 146 140 131 130 135 140 144 143 142 142 139 138 138 137 136 135 139 140 137 145 144 137 136 140 127 122 120 124 125 124 124 122 117 115 126 114 110
148 157 150 147 149 150 148 148 138 133 136 139 142 142 143 143 142 140 138 138 137 141 144 139 133 141 137 126 120 120 122 122 119 122 125 126 123 123 117 108 116 112 111
153 159 154 146 150 151 152 153 141 137 137 137 141 142 144 144 144 141 139 138 142 144 146 141 132 135 136 123 119 119 119 120 127 122 142 134 122 125 120 114 109 114 113
157 161 160 151 152 151 150 153 149 142 139 140 140 141 141 143 143 142 138 140 142 144 148 146 139 132 127 120 120 120 120 116 115 128 141 122 128 131 129 117 117 117 115
162 163 157 150 151 149 151 152 153 144 142 145 146 143 142 144 144 143 142 143 144 146 149 150 142 134 125 126 126 121 116 117 115 147 119 121 130 137 130 125 122 121 120
164 164 150 146 150 148 153 156 155 145 143 145 145 143 145 147 146 148 148 148 146 148 147 144 140 132 127 127 126 124 125 122 148 132 137 129 146 139 136 136 127 120 117
184 164 158 163 152 151 155 154 151 146 148 146 145 147 150 151 151 152 152 151 150 149 153 140 142 139 135 131 131 130 129 135 154 144 141 148 153 150 144 140 137 126 118
189 174 155 162 158 148 158 154 156 153 152 152 153 154 155 154 154 155 158 157 153 145 157 150 149 144 142 137 135 136 137 153 160 158 154 151 153 153 148 147 132 120 117
167 179 159 166 165 154 166 158 158 155 156 157 161 161 157 154 156 161 165 165 158 151 146 147 152 148 147 141 141 143 145 158 162 161 164 168 160 158 151 145 125 121 119
126 193 181 167 173 179 181 152 159 161 160 161 165 168 158 154 161 162 167 169 159 154 152 153 154 152 150 144 149 152 154 152 170 171 169 185 174 164 154 153 131 124 131
110 160 204 190 181 186 180 177 169 170 168 162 167 171 163 176 178 176 181 171 164 161 157 156 157 156 150 149 156 153 158 182 175 185 184 170 181 170 161 145 130 141 144
173 155 205 207 197 196 200 189 187 184 192 189 186 186 190 185 180 188 184 172 162 159 162 162 162 155 163 169 171 154 189 183 181 193 196 180 187 176 159 158 152 157 154
185 181 182 194 196 207 203 202 196 188 187 188 194 192 194 194 186 183 188 189 183 175 179 172 169 177 184 179 179 182 189 185 192 193 197 195 189 178 164 163 166 165 159
188 189 180 186 195 188 203 212 205 200 191 191 193 190 188 188 196 187 189 190 190 186 186 181 184 187 189 191 187 186 191 196 196 197 200 211 212 186 171 169 175 171 169
243 213 188 183 190 193 194 205 211 207 202 192 197 196 186 192 195 194 189 192 195 185 188 187 188 191 192 192 192 194 195 198 199 199 208 213 215 206 183 174 177 177 174
274 248 219 201 196 186 185 196 206 202 202 196 203 202 197 194 195 192 195 192 196 192 187 191 191 192 198 195 199 200 200 201 202 201 201 198 223 180 206 186 180 177 177
284 276 232 212 202 197 197 186 199 203 196 199 202 197 201 199 196 193 191 198 191 189 185 190 193 193 201 200 208 204 202 204 206 203 193 179 181 183 239 239 179 179 183
280 275 263 226 212 203 196 197 197 191 196 205 206 196 201 202 198 191 192 200 188 172 181 190 193 197 206 204 205 209 210 208 211 207 203 201 206 172 214 245 205 185 179
287 278 276 244 218 215 209 201 204 200 193 197 200 202 198 204 190 196 192 189 178 177 174 184 197 203 203 205 208 211 216 210 209 210 209 206 215 195 239 229 214 186 179
287 276 268 267 240 216 209 206 201 204 203 199 200 200 201 207 198 203 191 180 180 172 178 174 183 198 210 206 209 218 212 216 227 215 206 203 202 205 215 218 199 189 183
310 306 289 272 253 233 218 201 200 207 205 205 203 202 198 200 203 197 197 181 185 184 182 175 175 185 183 172 175 212 224 225 223 219 210 206 203 209 210 192 205 203 193
322 316 312 303 285 246 228 217 208 200 211 213 204 200 199 198 201 197 195 191 185 183 178 178 179 167 188 180 183 174 219 230 228 226 224 219 209 203 201 195 194 218 201
324 324 317 308 295 278 247 227 214 207 209 196 196 201 199 200 199 192 195 197 193 185 186 183 183 181 186 184 200 162 189 229 188 206 222 222 213 199 198 195 197 206 208
325 322 318 310 299 282 267 233 211 208 205 207 203 205 198 194 196 194 192 197 199 191 187 189 186 189 178 186 193 229 228 182 213 212 234 230 218 209 203 197 197 200 199
327 324 323 313 296 287 265 242 218 214 211 203 200 203 201 192 200 197 191 188 197 196 189 185 186 191 194 183 189 180 223 222 248 242 232 210 207 229 220 204 190 198 194
329 324 324 315 308 294 292 235 223 216 209 203 200 194 197 193 192 194 195 187 195 197 194 189 190 191 187 193 196 200 188 191 199 202 231 212 221 212 200 198 194 191 195